Location: Brompton
(51.4000°N, 0.5333°E)
Time: 17:20:18
(UTC+00:00)

Okean 1 - Pass Details

Date: 11 May 2021
Orbit: 537 x 555 km, 82.5° (Epoch: 15 June)

Event Time Altitude Azimuth Distance (km) Brightness Sun altitude
Exits shadow 22:30:00 41° 135° (SE) 806 3.7 -18.1°
Maximum altitude 22:30:53 49° 95° (E) 712 3.6 -18.1°
Drops below altitude 10° 22:34:45 10° 20° (NNE) 1,826 6.7 -18.3°
Sets 22:36:58 0° 15° (NNE) 2,721 7.8 -18.4°
